Date,TemperatureHighF,TemperatureAvgF,TemperatureLowF,DewpointHighF,DewpointAvgF,DewpointLowF,HumidityHigh,HumidityAvg,HumidityLow,PressureMaxIn,PressureMinIn,WindSpeedMaxMPH,WindSpeedAvgMPH,GustSpeedMaxMPH,PrecipitationSumIn
2013-2-1,32,28,21,18,9,4,62,46,35,30.08,29.59,13,3,23,0.00
2013-2-2,29,23,16,12,7,3,59,50,40,30.26,30.05,8,1,14,0.00
2013-2-3,26,24,20,23,19,12,92,84,56,30.06,29.74,6,1,9,0.00
2013-2-4,29,23,18,20,11,5,91,62,41,29.95,29.72,14,2,22,0.01
2013-2-5,28,24,19,22,14,8,90,65,51,30.03,29.94,10,1,13,0.00
2013-2-6,37,29,24,26,19,6,93,69,42,30.30,29.93,10,1,15,0.03
2013-2-7,29,23,15,16,4,1,65,45,32,30.53,30.30,8,1,14,0.00
2013-2-8,32,27,17,30,24,12,96,86,62,30.50,29.62,11,2,17,0.04
2013-2-9,20,17,14,18,14,6,93,87,71,30.19,29.59,14,5,23,0.00
2013-2-10,39,20,7,16,9,1,90,64,23,30.41,30.20,6,1,15,0.21
2013-2-11,41,29,10,40,26,7,97,90,70,30.36,29.61,2,0,4,0.29
2013-2-12,44,38,29,37,29,24,97,71,54,29.88,29.61,17,2,21,0.04
2013-2-13,42,32,22,27,24,19,92,74,51,29.87,29.70,7,1,12,0.00
2013-2-14,44,34,26,28,24,21,86,68,40,30.00,29.71,6,0,11,0.00
2013-2-15,52,37,24,35,30,22,95,78,50,30.00,29.90,12,1,17,0.00
2013-2-16,38,33,28,32,27,18,96,78,56,29.96,29.73,9,1,15,0.03
2013-2-17,29,21,16,20,11,1,90,67,46,29.73,29.39,17,5,27,0.00
2013-2-18,30,22,13,4,1,-2,61,42,25,30.16,29.68,16,4,24,0.00
2013-2-19,46,35,20,41,24,3,97,65,42,30.17,29.58,7,1,12,0.38
2013-2-20,40,32,25,40,20,12,97,64,43,29.78,29.53,17,3,21,0.00
2013-2-21,32,26,23,16,14,11,70,58,46,30.19,29.77,14,3,25,0.00
2013-2-22,40,31,23,26,21,16,84,68,46,30.40,30.20,7,1,13,0.00
2013-2-23,38,33,27,32,29,23,95,84,72,30.34,29.93,6,0,6,0.02
2013-2-24,36,33,30,35,32,29,97,96,94,29.93,29.70,6,1,20,0.60
2013-2-25,41,34,29,32,30,28,96,86,68,30.25,29.90,4,0,6,0.20
2013-2-26,43,35,25,35,29,24,97,81,58,30.35,30.17,5,0,10,0.00
2013-2-27,40,38,36,39,37,31,97,94,81,30.17,29.57,9,2,18,1.39
2013-2-28,48,37,33,38,34,32,96,89,68,29.65,29.53,5,0,10,0.01